This is the latest recevied weather packets stored in our database for station/object KLEMETTI. If no packets are shown the sender has not sent any weather packets the latest 10 day(s).
| Time | Temp. | Humidity | Pressure | Rain* | Wind** | Luminosity | Snow |
|---|---|---|---|---|---|---|---|
| 1777127195 | 3.33° C | 46% | 998.7 hPa | 0 mm | - | - | - |
| 1777125994 | 3.33° C | 49% | 998.5 hPa | 0 mm | - | - | - |
| 1777124794 | 3.33° C | 49% | 998.3 hPa | 0 mm | - | - | - |
| 1777123594 | 3.33° C | 50% | 998.1 hPa | 0 mm | - | - | - |
| 1777122394 | 3.33° C | 54% | 998 hPa | 0 mm | - | - | - |
| 1777121194 | 2.78° C | 59% | 997.9 hPa | 0 mm | - | - | - |
| 1777119994 | 2.78° C | 66% | 997.8 hPa | 0 mm | - | - | - |
| 1777118794 | 2.78° C | 67% | 997.6 hPa | 0 mm | - | - | - |
| 1777117594 | 2.22° C | 70% | 997.3 hPa | 0 mm | - | - | - |
| 1777116394 | 2.22° C | 78% | 997 hPa | 0 mm | - | - | - |
| 1777115194 | 1.67° C | 82% | 996.6 hPa | 0 mm | - | - | - |
| 1777113993 | 1.11° C | 88% | 996.2 hPa | 0.51 mm | - | - | - |
| 1777112793 | 0.56° C | 93% | 995.8 hPa | 0.51 mm | - | - | - |
| 1777111594 | 0° C | 96% | 995.7 hPa | 0.51 mm | - | - | - |
| 1777110393 | 0.56° C | 94% | 995.1 hPa | 0.51 mm | - | - | - |
| 1777109194 | 0.56° C | 93% | 994.6 hPa | 0.51 mm | - | - | - |
| 1777107994 | 0.56° C | 92% | 994.1 hPa | 0.51 mm | - | - | - |
| 1777106793 | 0.56° C | 95% | 993.5 hPa | 0.25 mm | - | - | - |
| 1777105593 | 0° C | 95% | 992.9 hPa | 0.25 mm | - | - | - |
| 1777104394 | 0° C | 96% | 992.4 hPa | 0.25 mm | - | - | - |
| 1777103194 | 0° C | 96% | 991.9 hPa | 1.27 mm | - | - | - |
| 1777101993 | 0.56° C | 95% | 991.4 hPa | 1.27 mm | - | - | - |
| 1777100793 | 0.56° C | 95% | 990.9 hPa | 1.27 mm | - | - | - |
| 1777099593 | 0.56° C | 97% | 990.5 hPa | 1.52 mm | - | - | - |
| 1777098393 | 0.56° C | 97% | 990.3 hPa | 1.52 mm | - | - | - |
* Rain latest hour (hover to see other rain measurements)
** Current wind speed in m/s (hover to see current wind gust speed)